Powrót do katalogu

P 76-5

AktywnyNaukaSSO
NORAD 8860·PAYLOAD·🇺🇸 United States

Wystrzelony May 22, 1976 z Vandenberg Space Force Base

Loading…

Następne Przeloty (najbliższe 24 godziny)

TLE

ŚwieżeSource: Space-Track

Epoka: Sep 14, 2026, 14:43 UTC

1 08860U 76047A   26257.61333212  .00000060  00000-0  12459-3 0  9999
2 08860  99.8918 113.1398 0042096 129.5326 238.8131 13.68318104508625

Śledź P 76-5 w czasie rzeczywistym z AllMySat

Download on the App Store